Uitslag Veloopzwem De Haan top 3

Triatlon Vlaanderen
# Naam Totaal
1 HEEMERYCK Pieter 01:15:03 81.10
2 Brems Willem 01:16:11 79.14
3 Denteneer Peter 01:16:16 79.08
4 HELIN Pieter 01:17:19 78.38
5 Moreel Wout 01:17:59 77.93
6 Huyberechts Nico 01:18:25 77.64
7 Janssens Geert 01:18:27 77.62
8 Truyers Jonathan 01:19:08 77.16
9 Swinnen Wannes 01:19:22 77.00
10 De Hertog Kjel 01:20:12 76.45
11 Dircken Lander 01:20:21 76.34
12 scherpereel steven 01:21:22 75.66
13 Bogaert Mike 01:21:26 75.62
14 Vandevoorde Ruben 01:21:30 75.57
15 Van Dycke Bas 01:21:31 75.56
16 Lammertyn Geert 01:21:52 75.33
17 Vanhee Thijs 01:22:20 75.01
18 Taecke Klaas 01:23:02 74.54
19 Van Houtem Joeri 01:23:33 74.20
20 Lambrechts Adam 01:23:37 74.15
21 Cocquyt Timothy 01:23:43 74.09
22 Laloo Wim 01:23:57 73.93
23 Van De Velde Jan 01:24:02 73.87
24 Vanhove Dave 01:24:10 73.78
25 Penne Pieterjan 01:24:12 73.76
26 Vanduynslager Karel 01:24:23 73.64
27 De Wispelaere Luc 01:24:47 73.37
28 Welkenhuysen Niek 01:24:50 73.34
29 Gerne Cedric 01:24:55 73.28
30 Ptacek David 01:25:18 73.02
31 Bedert Johny 01:26:16 72.38
32 Herreman Gillian 01:26:22 72.31
33 Tanghe Tom 01:26:28 72.24
34 Maes Joris 01:26:42 72.09
35 Vercarre Jurgen 01:26:46 72.04
36 Vermeersch Filip 01:26:59 71.89
37 Van Gorp Mark 01:27:08 71.79
38 Devliegere Stefaan 01:27:12 71.75
39 Winten Gertjan 01:27:15 71.72
40 Vijls Jan 01:27:16 71.70
41 Van De Moortele Bruce 01:27:43 71.40
42 Bellet Jean-Francois 01:28:03 71.18
44 Vermeir Gerd 01:28:16 71.03
45 Vanzier Bert 01:28:17 71.02
46 Vandevoorde Rik 01:28:31 70.87
47 Hermans David 01:28:47 70.69
48 Pauwels Johan 01:28:55 70.60
49 Deldaele Charlotte 01:29:05 73.90
50 Timmerman Wouter 01:29:20 70.32
51 Verbeke Mike 01:29:31 70.20
53 Helsmoortel Nick 01:30:32 69.51
54 Mahieu Jeroen 01:30:36 69.47
55 Poleunis Glenn 01:31:12 69.07
56 Cools Alain 01:31:14 69.04
57 Weets Joost 01:31:16 69.02
58 De Dycker Tony 01:31:26 68.91
59 Achten Lennert 01:31:27 68.90
60 Dujardin Steven 01:31:29 68.88
61 Bossuyt Lieselot 01:31:30 71.31
63 Strobbe Ruben 01:31:38 68.78
64 Bonamie Davey 01:31:44 68.71
65 Crevits Hannes 01:32:10 68.42
66 Vanparrys Marc 01:32:27 68.23
67 Markey Bram 01:32:56 67.90
68 Thibout Jean-marc 01:33:03 67.83
69 Janssens Andy 01:33:04 67.81
70 Rammant Johan 01:33:09 67.76
71 Bastiaenssen Louis 01:33:22 67.61
72 De Lombaert Luc 01:33:25 67.58
73 Vuylsteke Yves 01:33:25 67.58
74 Lagae Wesley 01:33:57 67.22
75 Breugelmans Christophe 01:34:10 67.08
76 Geerts Karolien 01:34:14 69.73
77 Robard Youri 01:35:03 66.48
78 Vercruysse Didier 01:35:08 66.43
79 Talpe Tony 01:35:23 66.26
80 Brulez Bart 01:35:28 66.20
81 Verbeke Filip 01:35:42 66.05
82 Reyniers Bart 01:35:50 65.96
83 Dekoker Thomas 01:36:04 65.80
84 Vannecke Benny 01:36:34 65.47
85 Sneyders Glenn 01:36:40 65.40
86 Schaerlaken Jan 01:36:51 65.28
87 Sander Dieter 01:37:09 65.08
88 Vande Casteele Justin 01:37:12 65.04
89 Beyaert Gerd 01:37:23 64.92
90 Decaestecker Kris 01:37:30 64.84
91 Vanden Daelen Leen 01:37:33 67.82
92 Govaerts Lieve 01:37:39 67.76
93 Campe Jocelyn 01:37:42 64.71
94 Seps Elke 01:37:46 67.70
95 Lingier Hans 01:37:47 64.65
96 Van Kerschaver Koen 01:38:09 64.40
97 trybou joachim 01:38:14 64.35
98 Verbeke Bert 01:38:15 64.34
99 Verleye Peter 01:38:45 64.00
100 Brees Peter 01:38:47 63.98
101 Desmet Bart 01:38:53 63.91
102 Buyle Christophe 01:38:55 63.89
103 Van Eenoo Geert 01:38:58 63.86
104 Stroobants Peter 01:39:09 63.73
105 De Maeseneer Jos 01:39:37 63.42
106 Dupont Youri 01:39:53 63.24
107 Gerne Andy 01:40:03 63.13
108 Wittevrongel Steve 01:40:24 62.89
110 De Groote Ann 01:40:55 65.88
111 Mulier Lars 01:40:58 62.51
112 Coeck Inge 01:41:00 65.83
113 Jürgen Vanpraet 01:41:00 62.49
114 Balzarini Sam 01:41:05 62.44
115 Ovaere Marten 01:41:11 62.37
116 Pz K-l-m 1 01:41:14 65.70
117 Biebauw Jeroen 01:41:29 62.17
118 Mattheeuws Damien 01:41:48 61.96
119 Dircx Annick 01:41:49 65.36
120 Buysse Carry 01:41:51 61.92
121 Werbrouck Liesbeth 01:41:55 65.31
122 Wauters Wim 01:42:00 61.82
123 Ghyselinck Pieter 01:42:01 61.81
124 Vandewiele Vincent 01:42:08 61.73
125 Vande Cavey Mats 01:42:11 61.70
126 Stroomer Marleen 01:42:45 64.83
127 Mampuys Dirk 01:42:47 61.30
128 Sels Joris 01:42:49 61.27
129 Cocquyt Nicolas 01:42:50 61.26
130 Martens Floor 01:42:52 64.76
131 Pinsart Luc 01:43:15 60.98
132 Van Dyck Dorien 01:43:19 64.50
133 De Boeck Gina 01:43:32 64.37
134 Peerlinck Frank 01:43:50 60.59
135 Marin Wim 01:44:02 60.46
136 Meynen Gert-jan 01:45:08 59.72
137 Ossieur Patrick 01:45:50 59.25
138 Sneyders Dave 01:45:54 59.21
139 De Vidts Peter 01:45:57 59.17
140 Van Renterghem Geert 01:46:07 59.06
142 Blanckaert Hans 01:48:03 57.76
143 Croquet Vincent 01:48:04 57.75
144 Vandamme Dennis 01:48:49 57.25
145 Eerebout Michel 01:49:08 57.04
146 Jochems Christof 01:49:34 56.75
147 Huybrechts Dave 01:49:47 56.60
148 Grégoire Geert 01:50:18 56.25
149 Neve Eric 01:51:10 55.67
150 De Pauw Bram 01:51:21 55.55
151 De Blaere Henk 01:52:10 55.00
152 Vandermarliere Benjamin 01:52:54 54.51
153 Prims Sven 01:53:00 54.44
154 Martens Stephanie 01:54:02 58.32
155 De Bruyn Bruno 01:54:24 53.50
156 Van Waelvelde Eric 01:54:38 53.35
157 Mestdagh Windy 01:55:02 57.75
158 Goossens Katrien 01:55:16 57.61
159 Vermote Robert 01:55:37 52.69
160 Maryns Frank 01:55:44 52.61
161 Delahaye Daniel 01:57:22 51.51
162 Van Den Neucker Luc 01:58:26 50.80
163 Callaert Wim 01:58:31 50.74
164 Aspeslagh Geert 01:58:41 50.63
165 De Wit An 01:59:27 55.20
166 Duron Tine 01:59:28 55.19
167 Cosyn Frank 02:01:23 48.82
168 Dircx Rik 02:02:48 47.87
169 Philippe Marc 02:03:40 47.29
170 Hertveldt Kathy 02:03:57 52.61
171 Huys Sabine 02:10:15 48.48
172 Vandergooten Pieter 02:10:16 42.36

Reacties

  • 7 jaar geleden

    Hallo beste atleten,

    Sfeerbeelden ( meer dan 150 foto's ) van de veloopzwem 2011 staan op de website van de sportdienst De Haan.

    gr

  • 7 jaar geleden

    Uitslag 29° Veloopzwem De Haan 26-03-2011

    http://www.triatlon.tk met foto's en PDF's

    De sportdienst De Haan olv, Stijn Bulcke stond terug in voor de organisatie van de Veloopzwem 2011. 178 starters voor 500m zwemmen in waves van 6 man van 's morgens 8 uur tot de middag in het zwembad van het sportcomplex van Pier 10. Om 15u werd er verzameld aan de aankomst voor de 27,3 km fietsen over 3 ronden, intussen was de temperatuur flink gedaald en was er een harde wind komen opzetten. Afsluitend moest er 8,6 km gelopen worden terug over 3 ronden.
    Het wedstrijdverloop bij de heren. Verrassend was de puike zwemprestatie van Adam Lambrechts die als eerste uit het water kwam in 5'29 en die verdienstelijk 20° eindigde. Favoriet SMO atleet Willem Brems volgde op een paar luttele seconden met zijn clubmaat Nick Debusschere en even verderop Pieter Heemeryck. Zij zouden in het fietsen een trein vormen die niemand meer terugzag. Opmerkelijk was de fietsprestatie van Nico Huyberechts die van plaats 34 naar plaats 3 doortrok maar een mindere wissel deed hem als snel voeling verliezen met de atleten voor hem maar Nico werd verdienstelijk nog 6°. Na ronde 1 van het lopen bleek al snel dat Pieter Heemeryck veel te sterk was voor de SMO'ers; na de doortocht stapte Nick trouwens uit de wedstrijd. Peter Denteneer die een mindere fietsbeurt maakte kaam goed op dreef en zou verdienstelijk derde worden na Willem Brems en outstanding Pieter Heemeryck.
    Bij de dames lag de strijd al vlug in een beslissende plooi. Charlotte Deldaele maakte de beste zwembeurt en begon met 34" voorsprong op Karolien Geerts aan het fietsen . Die voorsprong diepte ze uit tot 3'14". Revelatie Lieselot Bossuyt uit Otegem, als 8° uit het water op 2'20" was op de fiets opgerukt naar plaats 3 en dankzij een beste looptijd (zomaar eventjes 3' sneller dan de Charlotte) werd ze verdiend tweede voor Karolien.

    Johan Tack

    Meer info op http://www.dehaan.be/sport of sportdienstdehaan@telenet.be of stijn.bulcke@telenet.be

  • 7 jaar geleden

    Stayeren is idd in groepjes rijden, maar of je nu handvatjes hebt of niet, dat maakt niet zo veel uit. Wat wel belangrijk is is dat de handvatjes niet uitsteken naar voor. Als er staat dat stayeren verboden is moet je korte handvatjes hebben, is het toegelaten mag je kiezen.
    Vb: dit mag niet:
    http://www.pro-winner.net/files/ProWinner/opruiming/2009/DEDA_AERO_BLEU.jpg
    en dit wel:
    http://t0.gstatic.com/images?q=tbn:ANd9GcTXgjTR80zKmr69PNbLMd-y1SCcCsA5ptu2RvyTDw5rWt88JGz6QQ&t=1

  • 7 jaar geleden

    Stayeren, is toch gewoon in iemands wiel kruipen. dus in groepjes :D

  • 7 jaar geleden

    Mag je dan gewoon met een normale koersfiets rijden met tijdrit handvatjes.

    Ik heb namelijk een koersfiets, van trek,
    en heb daarop tijdrit handvatjes staan (ik ben maar amateur),

    Mag dit?

  • 7 jaar geleden

    Kris, ik lees hierboven dat stayeren niet toegelaten is, dus denk ik dat je beter niet start met je TT-fiets. :)

  • 7 jaar geleden

    Ik lees niet-stayer, dus mag ik starten met de TT-fiets. Iemand hierover meer info want ik denk dat je niet met een TT-fiets mag rijden in De Haan.

  • 7 jaar geleden

    Dag Stijn, bedankt voor de melding, de afstanden zijn aangepast.

  • 7 jaar geleden

    Hallo,

    De afstanden van de Veloopzwem (zachte triatlon )in De Haan zijn voor het zwemmen 500m in een 25m bad ( sportcomplex Pier 10 ), 27.3 km voor het fietsen ( 3 ronden )en 8.6km voor het lopen ( 3 ronden ).

    Meer info kan je lezen op onze website www.sportdienstdehaan.be
    let op : wij zullen weldra de inschrijvingen stoppen ( 220 atleten = volzet )
    vriendelijke groeten

  • 7 jaar geleden

    Als ik mij niet vergist is het fietsen hiet 22.5km en het lopen 8.6...

    Groetjes

    Rein